If you wish to contribute or participate in the discussions about articles you are invited to join SKYbrary as a registered user

 Actions

Annette Island Airport

From SKYbrary Wiki

PANT
Airport
ICAO: PANT – IATA: ANN
Summary
Name Annette Island Airport
Region North America
Territory Alaska US.gif
Location Annette Island, Alaska
Serving Annette Island
Elevation 36.271 m
119 ft
119 ft36.271 m
Type medium airport
Coordinates 55° 2' 32.77" N, 131° 34' 20.04" W
Runways
Designator Length Width Surface ROPS
2/20 1740 m5,708.661 ft
46 m150.919 ft
GVL /
12/30 2284 m7,493.438 ft
46 m150.919 ft
ASP /


METAR
Observation PANT 211453Z AUTO 13005KT 2 1/2SM BR OVC002 10/10 A2989 RMK SLP123 60000 T01000100 53014 TSNO VIA AUTODIAL
Station Annette, Annette Island Airport
Date/Time 21 May 2019 14:53:00
Wind direction 130°
Wind speed 05 kts
Lowest cloud amount overcast
Temperature 10°C
Dew point 10°C
Humidity 100%
QNH hPa
Weather condition mist

Maps

Terrain

Loading map...

Airport Layout

Loading map...


Accidents & Serious Incidents at or in vicinity of PANT

None on SKYbrary